Flag for U.S.A. Weather past 2 weeks in San Angelo, Texas, U.S.A.

66 °F

Light rain. Overcast.

Feels Like: 66 °F
Forecast: 62 / 83 °F
Wind: 5 mph from Southeast

Location: Mathis Field

Current Time: Oct 9, 2015 at 12:51:26 AM

Latest Report: Oct 8, 2015 at 11:51 PM

Visibility: 9 mi

Pressure: 30.07 "Hg (28.16 "Hg at 561m altitude)

Humidity: 93%

Dew point: 64 °F

Location of San AngeloLocation

Historic Weather in San Angelo — Graph


San Angelo temperature yesterday

Maximum temperature yesterday: 81 °F (at 11:51 AM)
Minimum temperature yesterday: 66 °F (at 9:51 PM)
Average temperature yesterday: 73 °F

Past Weeks' High & Low Weather Summary

High95 °F (Oct 1, 4:51 PM)93% (Oct 8, 8:58 PM)30.18 "Hg (Oct 8, 8:58 PM)
Low51 °F (Oct 6, 7:51 AM)23% (Sep 26, 3:51 PM)29.75 "Hg (Oct 3, 3:51 PM)
Average75 °F48%29.97 "Hg
* Reported Sep 23 10:51 PM — Oct 8 10:51 PM, San Angelo, Weather by CustomWeather, © 2015

Note: Actual official high and low records may vary slightly from our data, if they occured in-between our weather recording intervals... More about our weather records


San Angelo weather history for previous 24 hours

Time TempWeatherWind HumidityBarometerVisibility
10:51 PM
Thu, Oct 8
66 °FRain. Fog.No wind93%30.09 "Hg5 mi
9:51 PM66 °FHeavy rain. Fog.No wind93%30.08 "Hg2 mi
8:58 PM67 °FThundershowers. Fog.12 mph93%30.11 "Hg5 mi
7:51 PM67 °FThunderstorms. Mostly cloudy.12 mph90%30.02 "Hg10 mi
6:51 PM68 °FMostly cloudy.13 mph87%30.00 "Hg10 mi
5:51 PM70 °FLight rain. Mostly cloudy.9 mph87%30.00 "Hg10 mi
4:51 PM72 °FLight rain. Cloudy.7 mph84%29.96 "Hg10 mi
3:51 PM80 °FMostly cloudy.10 mph58%29.94 "Hg10 mi
2:51 PM80 °FPartly sunny.9 mph56%29.95 "Hg10 mi
1:51 PM80 °FPartly sunny.12 mph62%29.96 "Hg10 mi
12:51 PM81 °FBroken clouds.15 mph51%29.98 "Hg10 mi
11:51 AM81 °FBroken clouds.10 mph51%30.00 "Hg10 mi
10:51 AM78 °FOvercast.6 mph58%30.01 "Hg10 mi
9:51 AM75 °FMostly cloudy.10 mph66%30.01 "Hg10 mi
8:51 AM72 °FMostly cloudy.10 mph71%30.01 "Hg10 mi
7:51 AM70 °FOvercast.5 mph73%29.99 "Hg10 mi
6:51 AM71 °FOvercast.5 mph71%29.97 "Hg10 mi
5:51 AM72 °FOvercast.6 mph66%29.95 "Hg10 mi
4:51 AM71 °FOvercast.6 mph66%29.95 "Hg10 mi
3:51 AM74 °FOvercast.9 mph57%29.96 "Hg10 mi
2:51 AM74 °FPassing clouds.8 mph56%29.96 "Hg10 mi
1:51 AM74 °FClear.6 mph53%29.95 "Hg10 mi
12:51 AM73 °FClear.6 mph53%29.96 "Hg10 mi
Weather by CustomWeather, © 2015

See weather overviewHow to use our weather pages